Flag for Germany Weather past 2 weeks in Heilbronn, Baden-Württemberg, Germany

Now
72 °F

Sunny.


Feels Like: 76 °F
Forecast: 48 / 69 °F
Wind: 3 mph from Northeast

Location: Oehringen

Current Time: Oct 2, 2014 at 5:32:47 PM

Latest Report: Oct 2, 2014 at 5:00 PM


Visibility: 16 mi

Pressure: 30.31 "Hg

Humidity: 56%

Dew point: 55 °F

Location of HeilbronnLocation

Historic Weather in Heilbronn — Graph

°F

Heilbronn temperature yesterday

Maximum temperature yesterday: 70 °F (at 3:00 PM)
Minimum temperature yesterday: 54 °F (at 7:00 AM)
Average temperature yesterday: 60 °F

Past Weeks' High & Low Weather Summary

 TemperatureHumidityPressure
High76 °F (Sep 18, 4:00 PM)99% (Oct 1, 9:00 AM)30.41 "Hg (Oct 1, 9:00 AM)
Low42 °F (Sep 24, 7:00 AM)49% (Sep 23, 3:00 PM)29.84 "Hg (Sep 18, 4:00 PM)
Average59 °F82%30.14 "Hg
* Reported Sep 17 4:00 PM — Oct 2 4:00 PM, Heilbronn, Weather by CustomWeather, © 2014

Note: Actual official high and low records may vary slightly from our data, if they occured in-between our weather recording intervals... More about our weather records

Advertising

Heilbronn weather history for previous 24 hours

 ConditionsComfort  
Time TempWeatherWind HumidityBarometerVisibility
4:00 PM
Oct 2
71 °FPassing clouds.2 mph54%30.32 "Hg17 mi
3:00 PM71 °FPassing clouds.2 mph55%30.33 "Hg15 mi
2:00 PM71 °FSunny.2 mph55%30.34 "Hg17 mi
1:00 PM69 °FSunny.2 mph59%30.36 "Hg15 mi
12:00 PM65 °FSunny.1 mph73%30.38 "Hg7 mi
11:00 AM60 °FSunny.1 mph77%30.40 "Hg7 mi
10:00 AM55 °FSunny.1 mph86%30.41 "Hg7 mi
9:00 AM52 °FLow clouds.1 mph95%30.41 "Hg6 mi
8:00 AM50 °FFog.1 mph98%30.40 "Hg2 mi
7:00 AM50 °FFog.2 mph97%30.40 "Hg3 mi
6:00 AM51 °FFog.1 mph97%30.38 "Hg3 mi
5:00 AM51 °FFog.1 mph97%30.38 "Hg4 mi
4:00 AM52 °FFog.1 mph97%30.38 "Hg3 mi
3:00 AM52 °FFog.1 mph97%30.38 "Hg2 mi
2:00 AM53 °FFog.1 mph97%30.37 "Hg3 mi
1:00 AM55 °FFog.1 mph98%30.37 "Hg3 mi
12:00 AM55 °FFog.1 mph96%30.37 "Hg3 mi
11:00 PM
Oct 1
57 °FClear.1 mph95%30.36 "Hg5 mi
10:00 PM58 °FClear.1 mph94%30.35 "Hg7 mi
9:00 PM60 °FPassing clouds.1 mph90%30.34 "Hg8 mi
8:00 PM63 °FOvercast.1 mph83%30.32 "Hg12 mi
7:00 PM65 °FOvercast.1 mph74%30.30 "Hg17 mi
6:00 PM66 °FOvercast.1 mph75%30.29 "Hg14 mi
5:00 PM67 °FOvercast.2 mph71%30.29 "Hg18 mi
Weather by CustomWeather, © 2014

See weather overviewHow to use our weather pages